Time,TemperatureF,DewpointF,PressureIn,WindDirection,WindDirectionDegrees,WindSpeedMPH,WindSpeedGustMPH,Humidity,HourlyPrecipIn,Conditions,Clouds,dailyrainin,SoftwareType,DateUTC
2013-03-16 00:02:00,28.2,24.8,24.15,North,0,9.0,11.0,87,0.00,,,0.00,meteohub,2013-03-16 06:02:00,
2013-03-16 00:12:00,28.9,25.0,24.15,NW,315,8.0,10.0,85,0.00,,,0.00,meteohub,2013-03-16 06:12:00,
2013-03-16 00:17:00,28.4,25.0,24.15,NW,315,8.0,9.0,87,0.00,,,0.00,meteohub,2013-03-16 06:17:00,
2013-03-16 00:22:00,29.8,25.3,24.15,NNW,338,10.0,10.0,83,0.00,,,0.00,meteohub,2013-03-16 06:22:00,
2013-03-16 00:27:00,31.8,26.1,24.15,NW,315,12.0,12.0,79,0.00,,,0.00,meteohub,2013-03-16 06:27:00,
2013-03-16 00:32:00,32.9,25.9,24.15,NW,315,12.0,12.0,75,0.00,,,0.00,meteohub,2013-03-16 06:32:00,
2013-03-16 00:37:00,32.5,25.5,24.15,NW,315,6.0,12.0,75,0.00,,,0.00,meteohub,2013-03-16 06:37:00,
2013-03-16 00:42:00,32.7,25.7,24.15,NW,315,6.0,12.0,75,0.00,,,0.00,meteohub,2013-03-16 06:42:00,
2013-03-16 00:47:00,33.1,26.1,24.14,West,270,4.0,12.0,75,0.00,,,0.00,meteohub,2013-03-16 06:47:00,
2013-03-16 00:52:00,33.1,26.1,24.15,South,180,2.0,9.0,75,0.00,,,0.00,meteohub,2013-03-16 06:52:00,
2013-03-16 00:57:00,30.9,24.3,24.15,West,270,3.0,8.0,76,0.00,,,0.00,meteohub,2013-03-16 06:57:00,
2013-03-16 01:07:00,30.0,24.3,24.15,West,270,4.0,5.0,79,0.00,,,0.00,meteohub,2013-03-16 07:07:00,
2013-03-16 01:12:00,32.2,26.4,24.15,West,270,7.0,8.0,79,0.00,,,0.00,meteohub,2013-03-16 07:12:00,
2013-03-16 01:17:00,32.5,26.4,24.15,NW,315,7.0,8.0,78,0.00,,,0.00,meteohub,2013-03-16 07:17:00,
2013-03-16 01:22:00,32.5,26.4,24.14,West,270,4.0,8.0,78,0.00,,,0.00,meteohub,2013-03-16 07:22:00,
2013-03-16 01:27:00,32.7,26.6,24.14,West,270,8.0,8.0,78,0.00,,,0.00,meteohub,2013-03-16 07:27:00,
2013-03-16 01:32:00,33.3,26.6,24.14,SW,225,10.0,10.0,76,0.00,,,0.00,meteohub,2013-03-16 07:32:00,
2013-03-16 01:37:00,32.4,25.9,24.14,South,180,7.0,10.0,77,0.00,,,0.00,meteohub,2013-03-16 07:37:00,
2013-03-16 01:42:00,32.4,26.2,24.14,SW,225,8.0,10.0,78,0.00,,,0.00,meteohub,2013-03-16 07:42:00,
2013-03-16 01:47:00,32.5,26.4,24.14,SW,225,12.0,12.0,78,0.00,,,0.00,meteohub,2013-03-16 07:47:00,
2013-03-16 01:52:00,32.7,26.6,24.14,SW,225,9.0,15.0,78,0.00,,,0.00,meteohub,2013-03-16 07:52:00,
2013-03-16 01:57:00,32.5,26.4,24.14,SSW,203,11.0,15.0,78,0.00,,,0.00,meteohub,2013-03-16 07:57:00,
2013-03-16 02:02:00,32.7,26.6,24.14,SW,225,11.0,13.0,78,0.00,,,0.00,meteohub,2013-03-16 08:02:00,
2013-03-16 02:12:00,33.1,26.6,24.13,SW,225,11.0,12.0,77,0.00,,,0.00,meteohub,2013-03-16 08:12:00,
2013-03-16 02:17:00,33.6,26.6,24.14,SW,225,13.0,13.0,75,0.00,,,0.00,meteohub,2013-03-16 08:17:00,
2013-03-16 02:22:00,33.8,26.4,24.13,SW,225,11.0,15.0,74,0.00,,,0.00,meteohub,2013-03-16 08:22:00,
2013-03-16 02:27:00,33.8,26.4,24.12,SW,225,13.0,15.0,74,0.00,,,0.00,meteohub,2013-03-16 08:27:00,
2013-03-16 02:32:00,34.2,26.1,24.12,SW,225,11.0,15.0,72,0.00,,,0.00,meteohub,2013-03-16 08:32:00,
2013-03-16 02:37:00,34.3,26.2,24.12,SW,225,12.0,14.0,72,0.00,,,0.00,meteohub,2013-03-16 08:37:00,
2013-03-16 02:42:00,34.5,26.1,24.12,SW,225,12.0,14.0,71,0.00,,,0.00,meteohub,2013-03-16 08:42:00,
2013-03-16 02:47:00,34.5,25.7,24.12,SW,225,12.0,12.0,70,0.00,,,0.00,meteohub,2013-03-16 08:47:00,
2013-03-16 02:57:00,33.3,25.9,24.12,NW,315,13.0,13.0,74,0.00,,,0.00,meteohub,2013-03-16 08:57:00,
2013-03-16 03:02:00,33.8,26.1,24.12,SW,225,15.0,16.0,73,0.00,,,0.00,meteohub,2013-03-16 09:02:00,
2013-03-16 03:07:00,33.8,26.1,24.12,SW,225,15.0,16.0,73,0.00,,,0.00,meteohub,2013-03-16 09:07:00,
2013-03-16 03:12:00,33.8,26.1,24.12,SW,225,18.0,21.0,73,0.00,,,0.00,meteohub,2013-03-16 09:12:00,
2013-03-16 03:17:00,34.2,26.1,24.11,West,270,17.0,21.0,72,0.00,,,0.00,meteohub,2013-03-16 09:17:00,
2013-03-16 03:27:00,34.2,25.7,24.11,West,270,17.0,21.0,71,0.00,,,0.00,meteohub,2013-03-16 09:27:00,
2013-03-16 03:32:00,34.2,25.7,24.10,West,270,22.0,22.0,71,0.00,,,0.00,meteohub,2013-03-16 09:32:00,
2013-03-16 03:37:00,34.2,25.7,24.10,West,270,23.0,23.0,71,0.00,,,0.00,meteohub,2013-03-16 09:37:00,
2013-03-16 03:42:00,34.2,25.7,24.10,West,270,18.0,25.0,71,0.00,,,0.00,meteohub,2013-03-16 09:42:00,
2013-03-16 03:52:00,34.0,25.9,24.10,West,270,20.0,25.0,72,0.00,,,0.00,meteohub,2013-03-16 09:52:00,
2013-03-16 03:57:00,34.2,25.7,24.09,West,270,21.0,23.0,71,0.00,,,0.00,meteohub,2013-03-16 09:57:00,
2013-03-16 04:02:00,34.2,25.7,24.09,West,270,21.0,23.0,71,0.00,,,0.00,meteohub,2013-03-16 10:02:00,
2013-03-16 04:07:00,34.2,25.7,24.09,NW,315,26.0,26.0,71,0.00,,,0.00,meteohub,2013-03-16 10:07:00,
2013-03-16 04:12:00,34.2,25.7,24.09,West,270,22.0,26.0,71,0.00,,,0.00,meteohub,2013-03-16 10:12:00,
2013-03-16 04:17:00,34.0,25.2,24.09,West,270,27.0,27.0,70,0.00,,,0.00,meteohub,2013-03-16 10:17:00,
2013-03-16 04:22:00,34.0,25.2,24.09,West,270,27.0,27.0,70,0.00,,,0.00,meteohub,2013-03-16 10:22:00,
2013-03-16 04:27:00,33.8,25.3,24.09,SW,225,25.0,27.0,71,0.00,,,0.00,meteohub,2013-03-16 10:27:00,
2013-03-16 04:32:00,33.6,25.2,24.09,West,270,22.0,27.0,71,0.00,,,0.00,meteohub,2013-03-16 10:32:00,
2013-03-16 04:37:00,34.0,25.2,24.09,West,270,19.0,27.0,70,0.00,,,0.00,meteohub,2013-03-16 10:37:00,
2013-03-16 04:47:00,33.8,25.0,24.08,West,270,17.0,22.0,70,0.00,,,0.00,meteohub,2013-03-16 10:47:00,
2013-03-16 04:52:00,33.6,25.2,24.08,WNW,293,24.0,24.0,71,0.00,,,0.00,meteohub,2013-03-16 10:52:00,
2013-03-16 04:57:00,33.4,25.0,24.08,NW,315,21.0,24.0,71,0.00,,,0.00,meteohub,2013-03-16 10:57:00,
2013-03-16 05:02:00,33.4,25.3,24.08,West,270,21.0,24.0,72,0.00,,,0.00,meteohub,2013-03-16 11:02:00,
2013-03-16 05:12:00,32.5,25.5,24.08,NW,315,16.0,21.0,75,0.00,,,0.00,meteohub,2013-03-16 11:12:00,
2013-03-16 05:17:00,32.5,25.5,24.07,NW,315,17.0,21.0,75,0.00,,,0.00,meteohub,2013-03-16 11:17:00,
2013-03-16 05:27:00,32.2,25.5,24.07,West,270,16.0,21.0,76,0.00,,,0.00,meteohub,2013-03-16 11:27:00,
2013-03-16 05:32:00,32.0,25.3,24.07,NW,315,19.0,21.0,76,0.00,,,0.00,meteohub,2013-03-16 11:32:00,
2013-03-16 05:37:00,32.0,25.3,24.07,NW,315,18.0,21.0,76,0.00,,,0.00,meteohub,2013-03-16 11:37:00,
2013-03-16 05:47:00,31.8,25.5,24.07,NW,315,17.0,21.0,77,0.00,,,0.00,meteohub,2013-03-16 11:47:00,
2013-03-16 05:52:00,31.1,25.0,24.07,NW,315,14.0,21.0,78,0.00,,,0.00,meteohub,2013-03-16 11:52:00,
2013-03-16 06:02:00,30.9,25.5,24.07,NW,315,15.0,21.0,80,0.00,,,0.00,meteohub,2013-03-16 12:02:00,
2013-03-16 06:07:00,30.9,25.5,24.07,NW,315,15.0,15.0,80,0.00,,,0.00,meteohub,2013-03-16 12:07:00,
2013-03-16 06:12:00,32.0,25.7,24.07,NW,315,17.0,18.0,77,0.00,,,0.00,meteohub,2013-03-16 12:12:00,
2013-03-16 06:22:00,32.2,25.5,24.07,NW,315,25.0,25.0,76,0.00,,,0.00,meteohub,2013-03-16 12:22:00,
2013-03-16 06:27:00,31.8,25.5,24.08,NW,315,16.0,25.0,77,0.00,,,0.00,meteohub,2013-03-16 12:27:00,
2013-03-16 06:37:00,32.9,25.9,24.06,West,270,28.0,28.0,75,0.00,,,0.00,meteohub,2013-03-16 12:37:00,
2013-03-16 06:42:00,32.9,25.5,24.06,NW,315,30.0,30.0,74,0.00,,,0.00,meteohub,2013-03-16 12:42:00,
2013-03-16 06:47:00,32.9,25.5,24.06,NW,315,26.0,30.0,74,0.00,,,0.00,meteohub,2013-03-16 12:47:00,
2013-03-16 06:57:00,32.2,25.5,24.06,NW,315,21.0,30.0,76,0.00,,,0.00,meteohub,2013-03-16 12:57:00,
2013-03-16 07:02:00,32.0,25.9,24.06,NW,315,20.0,27.0,78,0.00,,,0.00,meteohub,2013-03-16 13:02:00,
2013-03-16 07:07:00,32.0,25.9,24.06,NW,315,20.0,27.0,78,0.00,,,0.00,meteohub,2013-03-16 13:07:00,
2013-03-16 07:17:00,31.5,25.3,24.06,West,270,15.0,20.0,78,0.00,,,0.00,meteohub,2013-03-16 13:17:00,
2013-03-16 07:22:00,31.8,25.5,24.06,NW,315,14.0,20.0,77,0.00,,,0.00,meteohub,2013-03-16 13:22:00,
2013-03-16 07:27:00,31.8,25.5,24.06,NW,315,13.0,16.0,77,0.00,,,0.00,meteohub,2013-03-16 13:27:00,
2013-03-16 07:37:00,32.2,25.7,24.06,NW,315,16.0,22.0,77,0.00,,,0.00,meteohub,2013-03-16 13:37:00,
2013-03-16 07:42:00,32.2,25.5,24.06,NW,315,17.0,22.0,76,0.00,,,0.00,meteohub,2013-03-16 13:42:00,
2013-03-16 07:47:00,32.4,25.3,24.06,NW,315,21.0,22.0,75,0.00,,,0.00,meteohub,2013-03-16 13:47:00,
2013-03-16 07:57:00,32.5,25.2,24.06,NW,315,14.0,23.0,74,0.00,,,0.00,meteohub,2013-03-16 13:57:00,
2013-03-16 08:02:00,32.4,25.0,24.06,NNW,338,8.0,23.0,74,0.00,,,0.00,meteohub,2013-03-16 14:02:00,
2013-03-16 08:07:00,32.4,25.0,24.05,NNW,338,8.0,23.0,74,0.00,,,0.00,meteohub,2013-03-16 14:07:00,
2013-03-16 08:12:00,33.1,25.3,24.05,West,270,20.0,20.0,73,0.00,,,0.00,meteohub,2013-03-16 14:12:00,
2013-03-16 08:17:00,33.1,25.0,24.04,NW,315,18.0,22.0,72,0.00,,,0.00,meteohub,2013-03-16 14:17:00,
2013-03-16 08:22:00,33.1,25.0,24.05,WNW,293,21.0,22.0,72,0.00,,,0.00,meteohub,2013-03-16 14:22:00,
2013-03-16 08:27:00,33.1,25.0,24.05,West,270,20.0,22.0,72,0.00,,,0.00,meteohub,2013-03-16 14:27:00,
2013-03-16 08:32:00,33.1,25.0,24.05,NW,315,23.0,25.0,72,0.00,,,0.00,meteohub,2013-03-16 14:32:00,
2013-03-16 08:37:00,33.1,25.3,24.05,NW,315,19.0,25.0,73,0.00,,,0.00,meteohub,2013-03-16 14:37:00,
2013-03-16 08:42:00,33.1,25.3,24.05,West,270,17.0,25.0,73,0.00,,,0.00,meteohub,2013-03-16 14:42:00,
2013-03-16 08:47:00,33.3,25.5,24.04,NW,315,21.0,25.0,73,0.00,,,0.00,meteohub,2013-03-16 14:47:00,
2013-03-16 08:52:00,33.4,25.3,24.05,West,270,23.0,25.0,72,0.00,,,0.00,meteohub,2013-03-16 14:52:00,
2013-03-16 08:57:00,33.4,25.3,24.05,West,270,21.0,28.0,72,0.00,,,0.00,meteohub,2013-03-16 14:57:00,
2013-03-16 09:02:00,33.4,25.3,24.05,West,270,24.0,28.0,72,0.00,,,0.00,meteohub,2013-03-16 15:02:00,
2013-03-16 09:07:00,33.4,25.3,24.05,West,270,24.0,27.0,72,0.00,,,0.00,meteohub,2013-03-16 15:07:00,
2013-03-16 09:12:00,33.4,25.3,24.04,West,270,33.0,33.0,72,0.00,,,0.00,meteohub,2013-03-16 15:12:00,
2013-03-16 09:22:00,33.6,25.9,24.05,West,270,27.0,33.0,73,0.00,,,0.00,meteohub,2013-03-16 15:22:00,
2013-03-16 09:27:00,33.8,26.1,24.05,West,270,24.0,33.0,73,0.00,,,0.00,meteohub,2013-03-16 15:27:00,
2013-03-16 09:37:00,33.8,26.1,24.04,West,270,29.0,30.0,73,0.00,,,0.00,meteohub,2013-03-16 15:37:00,
2013-03-16 09:42:00,33.8,26.4,24.04,West,270,26.0,30.0,74,0.00,,,0.00,meteohub,2013-03-16 15:42:00,
2013-03-16 09:47:00,33.8,26.4,24.04,West,270,33.0,33.0,74,0.00,,,0.00,meteohub,2013-03-16 15:47:00,
2013-03-16 09:57:00,33.1,27.3,24.03,West,270,36.0,36.0,79,0.00,,,0.00,meteohub,2013-03-16 15:57:00,
2013-03-16 10:07:00,32.9,27.5,24.04,West,270,34.0,37.0,80,0.00,,,0.00,meteohub,2013-03-16 16:07:00,
2013-03-16 10:12:00,32.9,27.7,24.04,NW,315,30.0,37.0,81,0.00,,,0.00,meteohub,2013-03-16 16:12:00,
2013-03-16 10:17:00,32.7,27.5,24.04,NW,315,31.0,38.0,81,0.00,,,0.00,meteohub,2013-03-16 16:17:00,
2013-03-16 10:27:00,33.1,27.5,24.05,NW,315,23.0,39.0,80,0.00,,,0.00,meteohub,2013-03-16 16:27:00,
2013-03-16 10:32:00,33.3,27.7,24.04,West,270,27.0,39.0,80,0.00,,,0.00,meteohub,2013-03-16 16:32:00,
2013-03-16 10:42:00,33.3,28.0,24.04,West,270,27.0,30.0,81,0.00,,,0.00,meteohub,2013-03-16 16:42:00,
2013-03-16 10:47:00,33.3,28.0,24.04,NW,315,28.0,30.0,81,0.00,,,0.00,meteohub,2013-03-16 16:47:00,
2013-03-16 10:52:00,33.3,28.0,24.04,NW,315,21.0,29.0,81,0.00,,,0.00,meteohub,2013-03-16 16:52:00,
2013-03-16 11:02:00,34.0,28.2,24.05,NW,315,21.0,28.0,79,0.00,,,0.00,meteohub,2013-03-16 17:02:00,
2013-03-16 11:07:00,34.0,28.2,24.05,NW,315,21.0,23.0,79,0.00,,,0.00,meteohub,2013-03-16 17:07:00,
2013-03-16 11:12:00,35.1,26.6,24.04,WNW,293,28.0,28.0,71,0.00,,,0.00,meteohub,2013-03-16 17:12:00,
2013-03-16 11:17:00,35.2,25.3,24.04,NW,315,31.0,31.0,67,0.00,,,0.00,meteohub,2013-03-16 17:17:00,
2013-03-16 11:22:00,35.4,25.2,24.04,West,270,25.0,31.0,66,0.00,,,0.00,meteohub,2013-03-16 17:22:00,
2013-03-16 11:32:00,36.0,25.3,24.05,NW,315,32.0,32.0,65,0.00,,,0.00,meteohub,2013-03-16 17:32:00,
2013-03-16 11:37:00,35.6,25.3,24.05,NW,315,26.0,32.0,66,0.00,,,0.00,meteohub,2013-03-16 17:37:00,
2013-03-16 11:42:00,36.1,25.2,24.05,NW,315,23.0,33.0,64,0.00,,,0.00,meteohub,2013-03-16 17:42:00,
2013-03-16 11:52:00,36.3,25.0,24.04,NW,315,24.0,29.0,63,0.00,,,0.00,meteohub,2013-03-16 17:52:00,
2013-03-16 12:02:00,36.7,25.0,24.04,NW,315,19.0,29.0,62,0.00,,,0.00,meteohub,2013-03-16 18:02:00,
2013-03-16 12:07:00,36.7,25.0,24.04,NW,315,19.0,27.0,62,0.00,,,0.00,meteohub,2013-03-16 18:07:00,
2013-03-16 12:12:00,37.6,25.7,24.04,NW,315,18.0,27.0,62,0.00,,,0.00,meteohub,2013-03-16 18:12:00,
2013-03-16 12:22:00,38.3,25.7,24.04,NW,315,19.0,27.0,60,0.00,,,0.00,meteohub,2013-03-16 18:22:00,
2013-03-16 12:27:00,38.3,24.8,24.03,NW,315,31.0,31.0,58,0.00,,,0.00,meteohub,2013-03-16 18:27:00,
2013-03-16 12:32:00,37.9,23.7,24.03,NW,315,31.0,31.0,56,0.00,,,0.00,meteohub,2013-03-16 18:32:00,
2013-03-16 12:37:00,38.5,24.1,24.03,NW,315,28.0,36.0,56,0.00,,,0.00,meteohub,2013-03-16 18:37:00,
2013-03-16 12:42:00,38.3,26.1,24.03,West,270,22.0,36.0,61,0.00,,,0.00,meteohub,2013-03-16 18:42:00,
2013-03-16 12:47:00,37.6,25.3,24.02,West,270,28.0,36.0,61,0.00,,,0.00,meteohub,2013-03-16 18:47:00,
2013-03-16 12:52:00,37.4,25.2,24.02,NW,315,27.0,29.0,61,0.00,,,0.00,meteohub,2013-03-16 18:52:00,
2013-03-16 13:02:00,37.9,25.3,24.02,West,270,23.0,33.0,60,0.00,,,0.00,meteohub,2013-03-16 19:02:00,
2013-03-16 13:12:00,39.7,25.0,24.02,West,270,28.0,28.0,55,0.00,,,0.00,meteohub,2013-03-16 19:12:00,
2013-03-16 13:22:00,39.4,25.0,24.01,NW,315,23.0,28.0,56,0.00,,,0.00,meteohub,2013-03-16 19:22:00,
2013-03-16 13:27:00,39.6,24.8,24.01,NW,315,27.0,30.0,55,0.00,,,0.00,meteohub,2013-03-16 19:27:00,
2013-03-16 13:37:00,39.4,23.7,24.01,WNW,293,30.0,32.0,53,0.00,,,0.00,meteohub,2013-03-16 19:37:00,
2013-03-16 13:47:00,38.7,24.3,24.01,NW,315,22.0,32.0,56,0.00,,,0.00,meteohub,2013-03-16 19:47:00,
2013-03-16 13:57:00,37.8,25.5,24.01,West,270,19.0,28.0,61,0.00,,,0.00,meteohub,2013-03-16 19:57:00,
2013-03-16 14:07:00,37.6,24.6,24.01,West,270,23.0,26.0,59,0.00,,,0.00,meteohub,2013-03-16 20:07:00,
2013-03-16 14:12:00,37.9,26.1,24.01,NW,315,22.0,26.0,62,0.00,,,0.00,meteohub,2013-03-16 20:12:00,
2013-03-16 14:17:00,37.6,25.0,24.00,West,270,30.0,30.0,60,0.00,,,0.00,meteohub,2013-03-16 20:17:00,
2013-03-16 14:22:00,37.4,24.8,24.00,NW,315,28.0,33.0,60,0.00,,,0.00,meteohub,2013-03-16 20:22:00,
2013-03-16 14:27:00,37.9,26.1,23.99,WNW,293,27.0,33.0,62,0.00,,,0.00,meteohub,2013-03-16 20:27:00,
2013-03-16 14:37:00,39.0,26.8,23.99,NW,315,22.0,30.0,61,0.00,,,0.00,meteohub,2013-03-16 20:37:00,
2013-03-16 14:42:00,38.8,25.7,23.99,West,270,20.0,29.0,59,0.00,,,0.00,meteohub,2013-03-16 20:42:00,
2013-03-16 14:52:00,39.2,23.5,23.98,NW,315,26.0,28.0,53,0.00,,,0.00,meteohub,2013-03-16 20:52:00,
2013-03-16 14:57:00,39.2,23.0,23.98,NW,315,27.0,30.0,52,0.00,,,0.00,meteohub,2013-03-16 20:57:00,
2013-03-16 15:07:00,39.4,23.2,23.97,NW,315,17.0,30.0,52,0.00,,,0.00,meteohub,2013-03-16 21:07:00,
2013-03-16 15:12:00,38.8,23.2,23.98,West,270,18.0,27.0,53,0.00,,,0.00,meteohub,2013-03-16 21:12:00,
2013-03-16 15:17:00,39.0,22.8,23.97,NW,315,17.0,24.0,52,0.00,,,0.00,meteohub,2013-03-16 21:17:00,
2013-03-16 15:22:00,39.6,23.0,23.97,West,270,18.0,27.0,51,0.00,,,0.00,meteohub,2013-03-16 21:22:00,
2013-03-16 15:27:00,39.7,23.5,23.97,NW,315,21.0,27.0,52,0.00,,,0.00,meteohub,2013-03-16 21:27:00,
2013-03-16 15:37:00,39.2,21.6,23.96,West,270,28.0,30.0,49,0.00,,,0.00,meteohub,2013-03-16 21:37:00,
2013-03-16 15:47:00,39.0,21.9,23.95,NW,315,23.0,30.0,50,0.00,,,0.00,meteohub,2013-03-16 21:47:00,
2013-03-16 15:52:00,39.0,22.5,23.95,NW,315,16.0,29.0,51,0.00,,,0.00,meteohub,2013-03-16 21:52:00,
2013-03-16 15:57:00,39.2,21.6,23.96,NW,315,17.0,25.0,49,0.00,,,0.00,meteohub,2013-03-16 21:57:00,
2013-03-16 16:07:00,39.4,22.3,23.95,West,270,12.0,20.0,50,0.00,,,0.00,meteohub,2013-03-16 22:07:00,
2013-03-16 16:12:00,39.7,21.7,23.95,West,270,21.0,21.0,48,0.00,,,0.00,meteohub,2013-03-16 22:12:00,
2013-03-16 16:17:00,40.3,22.1,23.95,West,270,18.0,23.0,48,0.00,,,0.00,meteohub,2013-03-16 22:17:00,
2013-03-16 16:22:00,41.5,22.3,23.95,West,270,15.0,23.0,46,0.00,,,0.00,meteohub,2013-03-16 22:22:00,
2013-03-16 16:27:00,42.6,23.7,23.94,NW,315,17.0,23.0,47,0.00,,,0.00,meteohub,2013-03-16 22:27:00,
2013-03-16 16:32:00,42.8,24.4,23.94,West,270,14.0,20.0,48,0.00,,,0.00,meteohub,2013-03-16 22:32:00,
2013-03-16 16:37:00,42.8,22.5,23.94,West,270,17.0,21.0,44,0.00,,,0.00,meteohub,2013-03-16 22:37:00,
2013-03-16 16:42:00,42.4,21.6,23.94,West,270,12.0,21.0,43,0.00,,,0.00,meteohub,2013-03-16 22:42:00,
2013-03-16 16:47:00,41.5,21.7,23.94,NW,315,13.0,21.0,45,0.00,,,0.00,meteohub,2013-03-16 22:47:00,
2013-03-16 16:52:00,41.7,21.9,23.94,West,270,18.0,20.0,45,0.00,,,0.00,meteohub,2013-03-16 22:52:00,
2013-03-16 17:02:00,42.1,22.3,23.94,West,270,20.0,21.0,45,0.00,,,0.00,meteohub,2013-03-16 23:02:00,
2013-03-16 17:07:00,42.1,22.3,23.94,West,270,20.0,21.0,45,0.00,,,0.00,meteohub,2013-03-16 23:07:00,
2013-03-16 17:17:00,41.0,20.8,23.93,West,270,27.0,27.0,44,0.00,,,0.00,meteohub,2013-03-16 23:17:00,
2013-03-16 17:22:00,40.5,20.8,23.93,West,270,23.0,29.0,45,0.00,,,0.00,meteohub,2013-03-16 23:22:00,
2013-03-16 17:27:00,40.3,22.6,23.93,NW,315,18.0,29.0,49,0.00,,,0.00,meteohub,2013-03-16 23:27:00,
2013-03-16 17:32:00,40.1,21.9,23.93,West,270,17.0,29.0,48,0.00,,,0.00,meteohub,2013-03-16 23:32:00,
2013-03-16 17:37:00,39.9,21.7,23.93,NW,315,18.0,27.0,48,0.00,,,0.00,meteohub,2013-03-16 23:37:00,
2013-03-16 17:42:00,39.7,21.7,23.92,West,270,22.0,24.0,48,0.00,,,0.00,meteohub,2013-03-16 23:42:00,
2013-03-16 17:47:00,39.7,22.1,23.92,West,270,21.0,25.0,49,0.00,,,0.00,meteohub,2013-03-16 23:47:00,
2013-03-16 17:52:00,39.7,22.6,23.92,West,270,23.0,25.0,50,0.00,,,0.00,meteohub,2013-03-16 23:52:00,
2013-03-16 17:57:00,39.7,22.1,23.91,West,270,22.0,25.0,49,0.00,,,0.00,meteohub,2013-03-16 23:57:00,
2013-03-16 18:02:00,39.7,21.7,23.91,West,270,22.0,27.0,48,0.00,,,0.00,meteohub,2013-03-17 00:02:00,
2013-03-16 18:07:00,39.7,21.7,23.91,West,270,22.0,27.0,48,0.00,,,0.00,meteohub,2013-03-17 00:07:00,
2013-03-16 18:12:00,39.2,20.7,23.91,NW,315,27.0,30.0,47,0.00,,,0.00,meteohub,2013-03-17 00:12:00,
2013-03-16 18:22:00,38.8,20.8,23.91,NW,315,23.0,31.0,48,0.00,,,0.00,meteohub,2013-03-17 00:22:00,
2013-03-16 18:27:00,38.8,21.4,23.90,NW,315,21.0,31.0,49,0.00,,,0.00,meteohub,2013-03-17 00:27:00,
2013-03-16 18:32:00,38.7,21.2,23.90,NW,315,20.0,31.0,49,0.00,,,0.00,meteohub,2013-03-17 00:32:00,
2013-03-16 18:37:00,38.3,21.2,23.90,West,270,21.0,27.0,50,0.00,,,0.00,meteohub,2013-03-17 00:37:00,
2013-03-16 18:42:00,38.3,21.7,23.90,West,270,16.0,27.0,51,0.00,,,0.00,meteohub,2013-03-17 00:42:00,
2013-03-16 18:47:00,37.9,21.9,23.89,West,270,16.0,21.0,52,0.00,,,0.00,meteohub,2013-03-17 00:47:00,
2013-03-16 18:57:00,37.8,21.7,23.89,West,270,15.0,20.0,52,0.00,,,0.00,meteohub,2013-03-17 00:57:00,
2013-03-16 19:02:00,37.8,20.8,23.89,West,270,17.0,17.0,50,0.00,,,0.00,meteohub,2013-03-17 01:02:00,
2013-03-16 19:07:00,37.8,20.8,23.89,West,270,17.0,20.0,50,0.00,,,0.00,meteohub,2013-03-17 01:07:00,
2013-03-16 19:17:00,37.6,19.6,23.89,West,270,23.0,23.0,48,0.00,,,0.00,meteohub,2013-03-17 01:17:00,
2013-03-16 19:22:00,37.4,19.9,23.89,West,270,19.0,23.0,49,0.00,,,0.00,meteohub,2013-03-17 01:22:00,
2013-03-16 19:27:00,37.6,19.6,23.89,West,270,22.0,24.0,48,0.00,,,0.00,meteohub,2013-03-17 01:27:00,
2013-03-16 19:32:00,37.4,19.6,23.88,SW,225,19.0,24.0,48,0.00,,,0.00,meteohub,2013-03-17 01:32:00,
2013-03-16 19:37:00,37.2,19.4,23.88,WSW,248,19.0,24.0,48,0.00,,,0.00,meteohub,2013-03-17 01:37:00,
2013-03-16 19:47:00,37.0,19.2,23.88,West,270,15.0,21.0,48,0.00,,,0.00,meteohub,2013-03-17 01:47:00,
2013-03-16 19:52:00,36.9,19.0,23.88,SW,225,12.0,21.0,48,0.00,,,0.00,meteohub,2013-03-17 01:52:00,
2013-03-16 19:57:00,36.9,19.0,23.88,SW,225,11.0,21.0,48,0.00,,,0.00,meteohub,2013-03-17 01:57:00,
2013-03-16 20:02:00,36.7,19.4,23.88,SW,225,9.0,16.0,49,0.00,,,0.00,meteohub,2013-03-17 02:02:00,
2013-03-16 20:07:00,36.7,19.4,23.88,SW,225,9.0,14.0,49,0.00,,,0.00,meteohub,2013-03-17 02:07:00,
2013-03-16 20:12:00,36.9,18.5,23.88,West,270,9.0,12.0,47,0.00,,,0.00,meteohub,2013-03-17 02:12:00,
2013-03-16 20:17:00,36.7,18.9,23.88,SW,225,10.0,10.0,48,0.00,,,0.00,meteohub,2013-03-17 02:17:00,
2013-03-16 20:22:00,36.7,18.9,23.88,SW,225,13.0,13.0,48,0.00,,,0.00,meteohub,2013-03-17 02:22:00,
2013-03-16 20:27:00,36.7,18.9,23.88,WSW,248,14.0,14.0,48,0.00,,,0.00,meteohub,2013-03-17 02:27:00,
2013-03-16 20:32:00,36.7,19.4,23.88,NW,315,11.0,14.0,49,0.00,,,0.00,meteohub,2013-03-17 02:32:00,
2013-03-16 20:37:00,36.5,19.2,23.87,WNW,293,13.0,14.0,49,0.00,,,0.00,meteohub,2013-03-17 02:37:00,
2013-03-16 20:47:00,36.5,19.2,23.87,West,270,14.0,16.0,49,0.00,,,0.00,meteohub,2013-03-17 02:47:00,
2013-03-16 20:52:00,36.5,19.2,23.86,WSW,248,15.0,16.0,49,0.00,,,0.00,meteohub,2013-03-17 02:52:00,
2013-03-16 20:57:00,36.5,19.6,23.86,West,270,13.0,17.0,50,0.00,,,0.00,meteohub,2013-03-17 02:57:00,
2013-03-16 21:02:00,36.3,19.4,23.86,West,270,14.0,17.0,50,0.00,,,0.00,meteohub,2013-03-17 03:02:00,
2013-03-16 21:12:00,36.0,19.6,23.86,West,270,11.0,15.0,51,0.00,,,0.00,meteohub,2013-03-17 03:12:00,
2013-03-16 21:22:00,36.0,19.6,23.86,West,270,11.0,14.0,51,0.00,,,0.00,meteohub,2013-03-17 03:22:00,
2013-03-16 21:27:00,35.8,19.9,23.86,West,270,8.0,14.0,52,0.00,,,0.00,meteohub,2013-03-17 03:27:00,
2013-03-16 21:32:00,35.8,19.9,23.85,West,270,8.0,14.0,52,0.00,,,0.00,meteohub,2013-03-17 03:32:00,
2013-03-16 21:37:00,35.8,19.4,23.85,West,270,11.0,12.0,51,0.00,,,0.00,meteohub,2013-03-17 03:37:00,
2013-03-16 21:47:00,35.8,19.4,23.85,West,270,11.0,15.0,51,0.00,,,0.00,meteohub,2013-03-17 03:47:00,
2013-03-16 21:52:00,35.8,19.9,23.85,West,270,11.0,15.0,52,0.00,,,0.00,meteohub,2013-03-17 03:52:00,
2013-03-16 21:57:00,35.6,19.8,23.84,West,270,11.0,15.0,52,0.00,,,0.00,meteohub,2013-03-17 03:57:00,
2013-03-16 22:02:00,35.4,19.6,23.84,West,270,12.0,12.0,52,0.00,,,0.00,meteohub,2013-03-17 04:02:00,
2013-03-16 22:12:00,35.4,19.9,23.84,NW,315,9.0,12.0,53,0.00,,,0.00,meteohub,2013-03-17 04:12:00,
2013-03-16 22:17:00,35.2,20.3,23.84,West,270,9.0,12.0,54,0.00,,,0.00,meteohub,2013-03-17 04:17:00,
2013-03-16 22:22:00,35.1,20.5,23.84,West,270,11.0,12.0,55,0.00,,,0.00,meteohub,2013-03-17 04:22:00,
2013-03-16 22:27:00,35.4,20.5,23.83,NW,315,11.0,11.0,54,0.00,,,0.00,meteohub,2013-03-17 04:27:00,
2013-03-16 22:32:00,35.6,20.7,23.83,West,270,12.0,12.0,54,0.00,,,0.00,meteohub,2013-03-17 04:32:00,
2013-03-16 22:37:00,35.6,20.7,23.83,West,270,15.0,15.0,54,0.00,,,0.00,meteohub,2013-03-17 04:37:00,
2013-03-16 22:42:00,35.4,20.5,23.83,West,270,12.0,15.0,54,0.00,,,0.00,meteohub,2013-03-17 04:42:00,
2013-03-16 22:47:00,35.6,20.7,23.83,WSW,248,13.0,15.0,54,0.00,,,0.00,meteohub,2013-03-17 04:47:00,
2013-03-16 22:52:00,35.4,20.5,23.83,West,270,11.0,15.0,54,0.00,,,0.00,meteohub,2013-03-17 04:52:00,
2013-03-16 22:57:00,35.6,20.7,23.82,West,270,11.0,14.0,54,0.00,,,0.00,meteohub,2013-03-17 04:57:00,
2013-03-16 23:07:00,35.6,20.7,23.81,West,270,11.0,13.0,54,0.00,,,0.00,meteohub,2013-03-17 05:07:00,
2013-03-16 23:12:00,35.1,20.5,23.81,West,270,11.0,12.0,55,0.00,,,0.00,meteohub,2013-03-17 05:12:00,
2013-03-16 23:17:00,35.4,20.5,23.81,NW,315,14.0,14.0,54,0.00,,,0.00,meteohub,2013-03-17 05:17:00,
2013-03-16 23:22:00,35.6,20.7,23.81,West,270,11.0,15.0,54,0.00,,,0.00,meteohub,2013-03-17 05:22:00,
2013-03-16 23:27:00,35.4,20.5,23.80,West,270,11.0,15.0,54,0.00,,,0.00,meteohub,2013-03-17 05:27:00,
2013-03-16 23:32:00,35.2,20.3,23.80,NW,315,9.0,15.0,54,0.00,,,0.00,meteohub,2013-03-17 05:32:00,
2013-03-16 23:37:00,35.2,20.7,23.80,NW,315,10.0,13.0,55,0.00,,,0.00,meteohub,2013-03-17 05:37:00,
2013-03-16 23:42:00,35.2,20.7,23.80,NW,315,11.0,11.0,55,0.00,,,0.00,meteohub,2013-03-17 05:42:00,
2013-03-16 23:47:00,34.9,21.2,23.80,NW,315,11.0,11.0,57,0.00,,,0.00,meteohub,2013-03-17 05:47:00,
2013-03-16 23:52:00,34.7,21.4,23.80,NW,315,11.0,11.0,58,0.00,,,0.00,meteohub,2013-03-17 05:52:00,
2013-03-16 23:57:00,34.5,21.2,23.80,NW,315,15.0,15.0,58,0.00,,,0.00,meteohub,2013-03-17 05:57:00,